Location: Foligno
(42.9600°N, 12.7050°E)
Time: 09:29:17
(UTC+02:00)

ISS - Pass Details

Date: 12 May 2021
Orbit: 417 x 422 km, 51.6° (Epoch: 15 May)

Event Time Altitude Azimuth Distance (km) Brightness Sun altitude
Exits shadow 02:51:12 - 314° (NW) 1,578 -0.7 -24.2°
Reaches altitude 10° 02:51:27 10° 317° (NW) 1,504 -0.7 -24.2°
Maximum altitude 02:53:55 19° 4° (N) 1,088 -1.0 -24.0°
Drops below altitude 10° 02:56:23 10° 51° (NE) 1,505 0.0 -23.8°
Sets 02:58:56 0° 71° (ENE) 2,370 0.8 -23.6°
